Wind_Speed
22 24 24 25 26 26 27 27 27 28 29 29 29 28 28 27 28 28 28 27 26 26 27 28 28 27 28 28 28 29 28 29 29 29 29 29 29 29 29 29 29 28 28
23 24 25 26 26 27 28 28 29 30 30 30 29 29 28 28 29 29 28 28 27 27 27 28 28 28 29 29 30 30 30 30 30 31 31 32 31 31 31 30 30 31 30
24 24 25 26 26 27 28 29 31 31 31 31 30 29 27 28 28 28 28 28 28 28 28 29 29 29 30 30 30 30 30 31 31 32 32 32 32 32 32 32 32 32 32
25 25 25 26 27 27 29 29 30 31 31 31 31 31 30 29 28 28 28 28 29 29 29 29 30 30 30 30 30 31 31 31 32 32 32 33 32 32 33 33 33 33 33
25 26 26 27 28 28 29 29 29 30 30 31 31 31 31 30 30 29 29 30 30 31 30 30 30 30 30 30 31 31 32 32 32 32 32 33 32 33 34 34 34 33 34
25 26 27 27 28 29 29 29 29 30 30 30 29 29 30 30 30 30 30 30 30 31 31 31 30 29 30 31 31 32 32 33 33 34 34 33 33 33 33 34 34 33 34
26 27 27 28 28 29 29 29 29 28 28 27 27 28 28 29 29 29 30 30 30 30 30 30 31 30 30 30 30 32 32 33 34 35 35 35 34 34 34 35 34 34 34
27 27 27 28 28 29 29 29 28 27 26 26 26 26 26 28 28 27 27 28 29 29 29 30 30 30 30 30 30 31 31 32 34 35 35 35 35 35 35 34 35 35 35
26 26 27 27 28 28 28 27 27 27 26 26 26 26 26 26 25 25 26 27 27 28 29 29 29 30 31 31 31 31 31 32 32 33 34 35 36 36 36 36 36 36 36
26 27 27 28 28 28 27 26 25 25 26 26 26 26 26 25 25 24 25 26 26 26 27 27 29 30 30 31 31 31 32 33 34 34 34 35 35 36 36 36 36 37 37
26 26 26 27 27 26 26 25 24 24 25 24 25 25 25 24 24 23 23 24 25 26 26 27 27 28 29 30 31 32 33 34 34 35 35 35 36 36 36 36 36 37 38
25 25 25 25 25 24 24 24 24 24 23 23 24 24 24 24 24 23 23 23 24 26 26 26 27 28 29 30 31 32 32 33 33 34 35 36 37 37 38 38 38 38 37
24 24 24 24 24 24 24 24 23 23 23 23 24 24 24 24 23 23 23 24 24 25 25 26 27 28 28 29 30 31 31 32 33 33 33 34 36 37 38 39 39 39 39
23 23 23 23 23 23 23 23 23 23 23 23 23 24 24 23 23 23 23 24 24 24 25 25 26 27 27 28 29 29 30 31 32 32 33 33 34 35 37 38 39 40 40
23 23 22 23 22 22 22 22 22 21 22 22 23 23 23 23 23 23 23 23 24 24 24 24 24 25 26 27 27 28 28 29 30 32 32 32 33 34 35 36 37 39 40
22 22 22 22 22 22 22 22 22 22 22 22 22 22 23 23 23 23 22 23 23 23 23 24 24 25 25 26 26 26 27 27 28 29 30 31 32 33 34 36 37 38 39
21 22 22 22 22 22 22 22 22 23 23 22 22 22 21 21 22 22 22 22 22 22 22 23 23 24 24 25 25 25 25 26 27 28 28 30 31 32 33 34 35 36 38
22 22 21 21 21 21 21 22 22 22 21 21 21 21 21 21 21 22 22 22 22 22 22 22 22 22 23 23 23 23 24 25 26 27 28 29 29 30 31 32 34 35 37
22 22 21 20 20 19 20 20 20 20 20 20 20 20 20 20 21 22 22 22 22 21 22 22 22 22 22 22 23 23 23 24 25 25 26 27 28 28 29 31 32 33 35
21 21 20 19 19 19 19 20 20 20 20 20 20 19 19 19 20 20 21 21 21 21 21 21 21 21 21 21 22 22 22 23 23 24 25 26 27 28 28 30 31 32 33
20 20 19 19 18 19 19 20 20 20 20 19 18 18 18 19 20 20 20 19 20 19 20 20 20 20 20 21 21 21 21 22 23 24 23 24 25 26 27 28 29 31 32
19 19 18 18 18 19 20 20 20 20 19 19 18 18 18 18 19 19 19 20 20 19 19 19 20 20 20 21 21 21 21 21 21 23 23 23 24 25 26 27 27 29 30
19 19 18 18 19 19 19 19 19 19 19 18 18 18 18 18 19 19 19 19 19 19 19 20 20 21 21 21 21 21 21 21 21 21 22 22 23 24 25 26 27 28 29
19 20 19 19 18 18 19 18 18 18 19 18 18 18 18 19 19 19 19 19 19 19 20 20 21 21 20 21 21 21 22 22 22 22 22 22 23 23 24 25 25 26 26
19 19 18 18 17 17 17 18 18 19 19 19 19 19 19 19 19 19 19 19 19 19 20 21 22 21 21 21 21 21 21 21 21 21 21 22 22 23 23 24 25 25 25
19 18 17 17 17 17 17 18 19 20 20 20 20 20 20 20 20 20 19 19 20 20 21 21 22 21 21 21 21 22 21 21 21 21 21 22 22 22 23 24 25 25 25
Wind_Direction
291 292 291 291 291 288 287 286 285 285 284 283 282 282 281 278 276 276 276 275 274 270 266 264 263 263 263 262 261 259 257 255 253 252 251 251 250 249 248 245 244 244 242
292 293 293 292 293 290 290 288 285 285 282 283 281 281 279 277 275 274 274 273 272 271 267 264 263 262 262 262 261 260 258 257 255 253 253 253 253 251 249 247 245 244 243
295 294 294 293 294 292 291 289 286 285 283 281 280 280 279 277 276 275 274 272 271 270 268 266 264 263 263 262 260 260 260 257 256 255 253 254 254 253 250 248 246 246 244
296 295 295 294 293 293 293 292 290 289 287 283 280 278 279 279 280 278 276 274 272 271 270 268 265 264 263 263 261 259 259 258 256 254 253 252 251 251 249 248 247 246 246
297 297 296 294 293 292 293 293 293 291 288 286 282 279 279 279 279 279 279 276 273 270 269 270 267 264 263 262 261 259 258 257 256 254 253 252 251 250 249 246 246 246 246
297 298 297 296 295 294 295 295 295 291 290 287 284 281 280 280 280 280 278 276 274 270 268 268 268 266 264 262 261 259 256 255 254 253 253 252 252 251 250 248 247 247 246
298 298 297 297 296 296 296 296 295 293 291 288 286 283 282 281 281 281 278 276 274 271 269 270 268 267 265 264 263 261 258 255 254 253 253 253 253 252 251 249 247 246 246
298 298 298 298 297 297 296 296 295 294 292 291 289 286 282 281 282 280 278 277 275 275 274 273 272 269 267 264 264 264 261 257 255 254 253 253 252 250 249 248 247 246 245
299 301 301 300 299 298 296 294 294 293 293 292 291 288 283 281 282 282 280 279 278 277 276 275 272 271 269 266 264 263 262 259 257 255 254 253 253 251 250 249 247 246 245
299 299 299 301 300 299 297 294 292 292 292 291 291 291 287 284 283 282 282 282 282 280 278 276 274 272 269 267 267 265 263 260 258 257 256 255 254 253 252 251 249 248 247
299 299 300 302 302 300 298 296 294 293 292 290 290 290 288 287 287 285 282 282 283 282 280 278 276 273 271 270 269 267 265 263 260 258 258 256 255 255 253 252 249 248 248
300 300 300 301 301 300 299 297 297 294 295 292 290 290 289 290 290 288 285 283 284 283 282 280 278 275 274 272 270 268 266 264 263 262 260 258 257 255 254 252 250 249 248
299 300 300 301 301 301 301 299 299 298 295 294 292 291 290 291 291 290 288 286 285 285 284 283 281 278 276 273 271 269 266 265 263 262 262 260 258 256 254 252 251 248 247
300 301 300 302 303 303 302 301 299 298 296 294 293 292 292 292 292 292 291 289 288 287 287 284 283 281 277 274 272 269 268 266 264 263 263 262 260 258 255 252 250 249 249
302 302 302 303 303 303 303 303 301 299 299 296 294 294 294 294 294 294 293 292 290 290 288 287 284 283 280 277 275 272 271 268 266 264 265 263 261 259 257 252 250 249 248
301 302 303 303 303 303 302 302 301 301 301 299 297 297 297 296 298 296 294 293 292 290 289 287 286 283 281 278 276 274 273 269 266 266 266 264 261 259 257 253 251 249 247
304 305 304 302 302 301 302 303 303 303 302 301 300 298 298 299 300 297 296 295 293 293 292 290 288 285 283 280 278 274 272 270 268 267 267 266 264 260 258 256 254 251 248
307 307 305 304 304 303 303 303 304 305 302 301 301 300 300 300 299 299 300 299 297 295 294 292 290 288 286 283 281 277 275 273 272 270 270 269 267 263 259 257 255 253 251
307 306 305 306 306 306 307 306 305 304 303 304 303 303 303 302 302 301 301 301 300 298 297 295 293 291 288 285 285 282 278 275 274 274 272 270 268 264 261 258 256 255 252
307 307 307 306 307 309 309 308 306 306 305 305 305 305 303 303 304 304 304 304 304 301 299 299 297 293 291 289 286 284 281 277 275 275 273 271 269 267 264 260 257 255 254
310 310 309 308 309 312 313 311 306 307 307 306 306 305 304 303 306 306 305 305 305 305 304 303 300 299 297 293 290 288 285 279 277 276 275 272 270 268 265 262 259 256 255
312 311 309 309 309 310 311 311 310 308 307 308 307 305 305 303 306 308 308 307 307 307 307 307 305 303 300 296 293 292 288 284 281 278 276 273 272 271 267 263 260 257 255
308 308 308 306 308 309 311 312 311 309 309 309 307 308 309 306 306 307 308 308 308 309 309 310 309 306 302 298 295 293 291 287 285 281 279 276 274 272 269 266 260 258 257
306 307 305 307 310 311 313 312 311 312 312 310 308 308 308 308 307 306 308 308 306 307 310 312 311 308 305 302 299 296 295 293 289 284 282 279 277 273 270 267 263 262 260
308 306 307 309 311 313 313 313 314 314 313 312 310 309 309 307 307 306 305 306 306 307 310 310 310 308 307 305 301 299 297 294 289 286 285 283 280 276 272 268 266 264 261
309 308 309 311 315 314 314 316 318 317 316 315 312 312 311 310 308 307 307 305 305 307 308 310 311 310 308 306 304 303 300 295 291 287 286 285 283 278 274 271 267 264 259
Height
5834 5832 5830 5828 5826 5824 5823 5821 5819 5817 5816 5815 5813 5813 5811 5810 5810 5809 5809 5809 5808 5808 5809 5809 5810 5810 5811 5812 5813 5814 5815 5816 5818 5820 5821 5823 5825 5827 5829 5831 5833 5835 5838
5829 5827 5825 5823 5821 5819 5817 5815 5813 5811 5809 5808 5807 5806 5805 5804 5803 5802 5802 5802 5802 5802 5802 5802 5803 5803 5804 5805 5806 5807 5808 5809 5810 5812 5814 5815 5817 5820 5822 5824 5826 5829 5831
5824 5822 5820 5817 5815 5813 5811 5808 5806 5803 5802 5801 5799 5799 5798 5797 5796 5795 5795 5795 5795 5795 5795 5795 5796 5796 5797 5797 5798 5799 5800 5802 5803 5805 5806 5808 5810 5812 5814 5817 5819 5822 5824
5819 5816 5814 5812 5810 5807 5805 5802 5800 5798 5796 5794 5793 5792 5791 5790 5789 5788 5788 5787 5787 5787 5787 5787 5788 5788 5789 5790 5790 5791 5793 5794 5795 5796 5798 5800 5802 5804 5807 5809 5812 5814 5817
5813 5810 5808 5806 5803 5801 5799 5796 5794 5791 5789 5787 5786 5784 5784 5783 5782 5781 5780 5780 5780 5780 5780 5779 5780 5780 5781 5781 5782 5783 5784 5785 5787 5788 5790 5792 5794 5796 5798 5801 5804 5806 5809
5807 5804 5802 5799 5797 5794 5792 5789 5787 5785 5782 5780 5779 5777 5776 5775 5774 5774 5773 5772 5772 5771 5771 5771 5771 5771 5772 5772 5773 5774 5775 5776 5778 5780 5782 5784 5786 5788 5790 5793 5795 5798 5801
5801 5798 5796 5793 5790 5787 5785 5782 5780 5777 5775 5773 5772 5771 5770 5768 5767 5766 5765 5765 5764 5763 5763 5763 5763 5763 5763 5764 5765 5765 5766 5767 5769 5771 5773 5775 5777 5780 5782 5784 5787 5790 5792
5795 5792 5789 5786 5783 5780 5778 5775 5773 5771 5769 5767 5766 5764 5763 5762 5760 5759 5758 5757 5757 5756 5756 5755 5755 5755 5755 5755 5756 5757 5757 5759 5760 5762 5764 5766 5768 5771 5773 5775 5778 5781 5784
5788 5785 5782 5779 5776 5773 5771 5768 5766 5764 5762 5760 5759 5758 5757 5756 5754 5752 5751 5750 5749 5748 5748 5748 5747 5747 5747 5747 5747 5748 5749 5750 5751 5753 5755 5757 5759 5761 5764 5766 5769 5772 5775
5782 5779 5776 5773 5769 5766 5764 5762 5759 5758 5756 5754 5752 5751 5750 5748 5747 5746 5744 5743 5742 5741 5740 5740 5739 5739 5739 5739 5739 5739 5740 5741 5742 5744 5745 5747 5750 5752 5754 5757 5759 5762 5765
5776 5773 5770 5767 5763 5761 5758 5756 5754 5752 5750 5748 5746 5745 5743 5741 5740 5740 5739 5737 5735 5734 5733 5732 5731 5731 5730 5730 5730 5730 5731 5732 5733 5734 5736 5738 5740 5742 5744 5747 5750 5752 5755
5770 5767 5763 5761 5758 5755 5752 5750 5748 5746 5744 5742 5740 5739 5737 5736 5734 5733 5732 5730 5729 5727 5726 5725 5724 5723 5722 5722 5722 5722 5722 5722 5723 5725 5726 5728 5729 5731 5734 5736 5739 5742 5745
5764 5761 5758 5755 5752 5749 5747 5744 5742 5740 5738 5736 5735 5733 5731 5729 5727 5726 5725 5724 5722 5721 5719 5717 5716 5715 5714 5713 5713 5713 5713 5713 5714 5715 5717 5718 5719 5721 5723 5726 5728 5732 5735
5757 5754 5752 5749 5746 5744 5741 5739 5737 5735 5732 5730 5729 5727 5725 5723 5721 5719 5718 5717 5715 5714 5712 5710 5708 5707 5706 5705 5704 5704 5704 5704 5705 5706 5707 5708 5709 5711 5713 5715 5718 5721 5724
5751 5748 5746 5743 5741 5738 5736 5734 5731 5729 5727 5725 5723 5721 5719 5717 5715 5713 5711 5710 5708 5707 5705 5703 5701 5699 5698 5697 5696 5696 5696 5696 5696 5697 5698 5698 5699 5701 5702 5704 5707 5710 5713
5745 5742 5740 5737 5735 5733 5731 5728 5726 5723 5721 5719 5717 5715 5713 5711 5709 5707 5705 5703 5701 5699 5698 5696 5694 5692 5690 5690 5689 5688 5688 5688 5688 5688 5688 5689 5690 5691 5692 5694 5696 5698 5701
5739 5736 5734 5731 5729 5727 5725 5723 5720 5718 5715 5713 5711 5709 5707 5705 5703 5701 5699 5697 5695 5693 5691 5689 5687 5685 5683 5682 5681 5681 5680 5679 5679 5680 5680 5680 5681 5681 5683 5684 5685 5687 5690
5734 5731 5728 5725 5723 5721 5719 5717 5714 5712 5709 5707 5705 5703 5701 5699 5697 5695 5692 5690 5688 5686 5684 5682 5681 5679 5677 5676 5675 5673 5673 5672 5671 5671 5671 5671 5671 5672 5673 5674 5675 5677 5679
5728 5725 5723 5720 5718 5715 5713 5711 5709 5706 5704 5702 5699 5697 5695 5693 5691 5689 5686 5684 5682 5680 5678 5676 5674 5672 5670 5669 5668 5667 5665 5664 5664 5663 5663 5663 5663 5663 5664 5665 5666 5667 5669
5723 5720 5717 5714 5713 5710 5708 5706 5704 5701 5699 5697 5694 5692 5690 5688 5685 5683 5680 5678 5676 5674 5672 5670 5668 5666 5664 5662 5661 5660 5658 5657 5656 5656 5655 5655 5655 5655 5655 5655 5656 5657 5659
5717 5714 5712 5710 5708 5706 5703 5701 5699 5697 5694 5692 5689 5687 5685 5683 5680 5678 5675 5673 5671 5669 5666 5664 5662 5660 5658 5656 5654 5653 5651 5650 5649 5648 5648 5647 5647 5647 5646 5647 5647 5648 5649
5713 5710 5708 5706 5704 5701 5699 5696 5694 5692 5689 5687 5685 5682 5680 5678 5676 5673 5670 5668 5666 5664 5661 5659 5656 5654 5652 5650 5648 5646 5645 5644 5643 5642 5641 5640 5639 5639 5638 5638 5639 5639 5640
5709 5706 5703 5701 5699 5697 5694 5692 5689 5687 5684 5682 5680 5677 5675 5673 5671 5668 5666 5663 5661 5658 5656 5654 5651 5648 5646 5644 5642 5640 5638 5636 5635 5634 5633 5633 5632 5631 5631 5630 5631 5631 5632
5704 5702 5699 5697 5694 5692 5690 5688 5685 5682 5679 5677 5675 5673 5671 5668 5666 5663 5660 5658 5656 5653 5651 5648 5646 5643 5640 5638 5635 5633 5631 5629 5628 5626 5625 5625 5624 5623 5622 5622 5622 5622 5623
5699 5697 5694 5692 5690 5688 5686 5683 5681 5678 5675 5673 5670 5668 5665 5663 5661 5658 5655 5653 5650 5648 5645 5643 5640 5637 5634 5632 5629 5627 5624 5622 5621 5619 5617 5616 5615 5614 5614 5614 5614 5614 5614
5694 5692 5690 5688 5685 5683 5681 5679 5676 5673 5671 5668 5665 5663 5660 5657 5655 5652 5650 5647 5645 5642 5640 5637 5634 5631 5628 5625 5622 5620 5617 5615 5613 5612 5610 5608 5607 5606 5606 5606 5605 5605 5606